This is the latest recevied weather packets stored in our database for station/object SP7QPD-1. If no packets are shown the sender has not sent any weather packets the latest 10 day(s).
| Time | Temp. | Humidity | Pressure | Rain* | Wind** | Luminosity | Snow |
|---|---|---|---|---|---|---|---|
| 1777448415 | 5.56° C | 49% | 1026.7 hPa | 0 mm | - | - | - |
| 1777447815 | 5.56° C | 50% | 1026.7 hPa | 0 mm | - | - | - |
| 1777447250 | 5° C | 50% | 1026.7 hPa | 0 mm | - | - | - |
| 1777446615 | 4.44° C | 51% | 1026.7 hPa | 0 mm | - | - | - |
| 1777446014 | 4.44° C | 51% | 1026.6 hPa | 0 mm | - | - | - |
| 1777445449 | 4.44° C | 53% | 1026.3 hPa | 0 mm | - | - | - |
| 1777444814 | 3.89° C | 54% | 1026.5 hPa | 0 mm | - | - | - |
| 1777444214 | 3.89° C | 56% | 1026.3 hPa | 0 mm | - | - | - |
| 1777443649 | 3.89° C | 56% | 1026.2 hPa | 0 mm | - | - | - |
| 1777443014 | 3.89° C | 57% | 1026.2 hPa | 0 mm | - | - | - |
| 1777442414 | 3.89° C | 59% | 1026.1 hPa | 0 mm | - | - | - |
| 1777441849 | 3.89° C | 59% | 1026.1 hPa | 0 mm | - | - | - |
| 1777441214 | 3.33° C | 60% | 1025.7 hPa | 0 mm | - | - | - |
| 1777440614 | 2.78° C | 62% | 1025.7 hPa | 0 mm | - | - | - |
| 1777440048 | 2.22° C | 62% | 1025.7 hPa | 0 mm | - | - | - |
| 1777439414 | 1.67° C | 62% | 1025.6 hPa | 0 mm | - | - | - |
| 1777438813 | 1.67° C | 63% | 1025.7 hPa | 0 mm | - | - | - |
| 1777438248 | 1.67° C | 63% | 1025.6 hPa | 0 mm | - | - | - |
| 1777437613 | 1.67° C | 63% | 1025.6 hPa | 0 mm | - | - | - |
| 1777437013 | 1.11° C | 63% | 1025.5 hPa | 0 mm | - | - | - |
| 1777436447 | 1.11° C | 63% | 1025.2 hPa | 0 mm | - | - | - |
| 1777435813 | 1.11° C | 62% | 1025.2 hPa | 0 mm | - | - | - |
| 1777435213 | 1.67° C | 61% | 1025.2 hPa | 0 mm | - | - | - |
| 1777434647 | 1.67° C | 61% | 1025 hPa | 0 mm | - | - | - |
| 1777434013 | 2.22° C | 61% | 1024.8 hPa | 0 mm | - | - | - |
* Rain latest hour (hover to see other rain measurements)
** Current wind speed in m/s (hover to see current wind gust speed)